Regional Weather Roundup
Issued by NWS

Home | Current Version | Previous Version | Graphics & Text | Print | Product List | Glossary On
Versions: 1 2 3 4 5 6 7 8 9 10 11 12 13 14 15 16 17 18 19 20 21 22 23 24 25 26 27 28 29 30 31 32 33 34 35 36 37 38 39 40 41 42 43 44 45 46 47 48 49 50
000
ASUS43 KMPX 041010
RWRMN
WEATHER ROUNDUP FOR MINNESOTA
NATIONAL WEATHER SERVICE TWIN CITIES/CHANHASSEN MN
500 AM CDT WED MAY 04 2016


NOTE: "FAIR" INDICATES FEW OR NO CLOUDS BELOW 12,000 FEET WITH NO
SIGNIFICANT WEATHER AND/OR OBSTRUCTIONS TO VISIBILITY. N/A MEANS
CURRENT SKY AND/OR WEATHER CONDITIONS ARE NOT AVAILABLE.

MNZ060>063-068>070-041100-
   Twin Cities Metro

CITY           SKY/WX    TMP DP  RH WIND       PRES   REMARKS
TWIN CITIES    CLEAR     47  32  56 N5        29.93R
ST PAUL        CLEAR     46  33  60 NW7       29.94R
CRYSTAL        CLEAR     45  32  60 N5        29.93R
BLAINE         CLEAR     45  36  70 NW5       29.93S
EDEN PRAIRIE   CLEAR     47  32  56 N6        29.92R
SOUTH ST PAUL  CLEAR     48  32  53 N5        29.92S
LAKE ELMO      FAIR      45  34  65 N3        29.92S
$$
MNZ001>005-007-008-013>017-022>024-027-028-041100-
   Northwest Minnesota

CITY           SKY/WX    TMP DP  RH WIND       PRES   REMARKS
BEMIDJI        CLEAR     34  31  89 NW5       30.00R WCI  30
HALLOCK        CLEAR     36  30  80 N5        30.05S
ROSEAU         CLEAR     37  34  87 NW5       30.04R
WARROAD        CLEAR     37  34  87 NW5       30.04R
THIEF RVR FALL CLEAR     39  30  70 N7        30.04S
CROOKSTON      CLEAR     36  28  75 CALM      30.05S
FOSSTON        CLEAR     34  28  80 CALM      30.03S
DETROIT LAKES  CLEAR     37  34  87 NW6       30.02S
MOORHEAD       CLEAR     39  28  65 N8        30.04S
PARK RAPIDS    CLEAR     37  31  78 N6        29.99R
MAHNOMEN       FAIR      37  33  84 N3        30.02S
$$
MNZ006-009>011-018-025>026-041100-
   North Central Minnesota

CITY           SKY/WX    TMP DP  RH WIND       PRES   REMARKS
BAUDETTE       CLEAR     39  33  79 N5        30.01R
FLAG ISLAND    CLEAR     43  36  75 N10       30.02S
INTL FALLS     CLEAR     36  30  79 NW7       29.97S
WASKISH        PTCLDY    39  34  81 N6        30.00S
BIG FORK       CLEAR     34  30  86 CALM      29.98R
LONGVILLE      PTCLDY    34  32  93 CALM      29.97S
GRAND RAPIDS   CLEAR     34  28  80 CALM      29.97R
CRANE LAKE     CLEAR     27  27 100 CALM      29.96S
ORR            CLEAR     39  30  70 CALM      29.93R
COOK           CLEAR     30  28  93 CALM      29.95R
WALKER         FAIR      37  32  84 NW5       29.99R
$$
MNZ012-019>021-037-041100-
   Northeast Minnesota

CITY           SKY/WX    TMP DP  RH WIND       PRES   REMARKS
DULUTH         CLEAR     40  31  70 N7        29.91R
ELY            CLEAR     36  30  80 NW3       29.91S
HIBBING        CLEAR     36  30  79 N9        29.93S
EVELETH        CLEAR     43  32  65 N8        29.93S
DULUTH HARBOR  CLEAR     46  34  61 NW10      29.92R
TWO HARBORS    CLEAR     43  34  70 CALM      29.89S
SILVER BAY     CLEAR     39  30  70 NW5       29.88S
GRAND MARAIS     N/A     36  30  79 CALM      29.87S
G MARAIS ARPRT CLEAR     36  25  64 NW7       29.85S
$$
MNZ029>031-032-039>041-046>048-054>057-064-041100-
   West Central Minnesota

CITY           SKY/WX    TMP DP  RH WIND       PRES   REMARKS
FERGUS FALLS   CLEAR     43  36  75 CALM      30.00R
WHEATON        CLEAR     43  34  70 NW6       30.04S
MORRIS         CLEAR     37  32  81 NW7       30.00R
ALEXANDRIA     CLEAR     43  34  70 NW6       30.00R
ELBOW LAKE     FAIR      40  35  80 NW5       30.01S
WADENA         CLEAR     37  30  75 NW5       29.99S
GLENWOOD       CLEAR     41  32  70 NW6       29.99S
APPLETON       CLEAR     39  34  81 N3        30.00S
BENSON         CLEAR     37  30  75 N6        30.00R
ORTONVILLE     CLEAR     43  32  65 NW7       30.01S
MADISON        CLEAR     43  34  70 N10       30.01R
WILLMAR        FAIR      39  34  81 NW7       29.99R
$$
MNZ033>034-036-042>043-049>051-058-059-041100-
   Central Minnesota

CITY           SKY/WX    TMP DP  RH WIND       PRES   REMARKS
ST CLOUD       CLEAR     41  32  70 NW6       29.96R
SAUK CENTRE    FAIR      38  32  78 NW5       29.98S
PAYNESVILLE    CLEAR     43  32  64 CALM      29.98R
AITKIN         CLEAR     36  28  75 CALM      29.94S
PINE RIVER     CLEAR     34  30  86 CALM      30.01R
BRAINERD       CLEAR     38  31  76 N6        29.97R
STAPLES        CLEAR     37  32  81 NW5       29.98S
LONG PRAIRIE   FAIR      37  32  81 CALM      29.98S
LITTLE FALLS   CLEAR     36  32  87 CALM      29.97S
LITCHFIELD     CLEAR     43  34  70 N5        29.97R
BUFFALO        CLEAR     44  33  64 NW5       29.96R
MAPLE LAKE     CLEAR     44  35  71 NW5       29.97R
HUTCHINSON     CLEAR     44  35  71 N7        29.97R
$$
MNZ037-044-045-052-053-041100-
   East Central Minnesota

CITY           SKY/WX    TMP DP  RH WIND       PRES   REMARKS
PRINCETON      CLEAR     39  32  75 W3        29.95S
MORA           CLEAR     37  32  81 CALM      29.96R
CAMBRIDGE      CLEAR     43  30  61 CALM      29.92S
RUSH CITY      CLEAR     42  32  68 NW5       29.93S
MOOSE LAKE     CLEAR     41  32  70 N6        29.91S
HINCKLEY       CLOUDY    41  32  70 NW3       29.93S
CLOQUET        CLEAR     39  28  65 NW5       29.92S
MCGREGOR       CLEAR     39  32  75 NW5       29.95R
$$
MNZ071>073-080-081-089-090-097-098-041100-
   Southwest Minnesota

CITY           SKY/WX    TMP DP  RH WIND       PRES   REMARKS
MONTEVIDEO     CLEAR     43  34  70 N8        30.01S
GRANITE FALLS  CLEAR     45  34  66 NW7       30.00S
CANBY          CLEAR     44  37  75 NW9       30.02R
MARSHALL       CLEAR     39  32  76 NW9       29.99R
REDWOOD FALLS  CLEAR     46  32  58 N8        29.97R
OLIVIA         CLEAR     43  32  65 N7        29.97R
PIPESTONE      CLEAR     43  30  61 N5        29.98S
WINDOM         CLEAR     43  34  70 N12       29.96R
WORTHINGTON    CLEAR     43  34  70 N14       29.97R
JACKSON        PTCLDY    43  32  65 N6        29.95S
TRACY          CLEAR     44  33  66 NW9       29.99R
SLAYTON        CLEAR     44  32  64 N9        29.99R
$$
MNZ065>067-074>077-082>085-091>093-041100-
   South Central Minnesota

CITY           SKY/WX    TMP DP  RH WIND       PRES   REMARKS
MANKATO        CLEAR     46  30  53 N9        29.93R
NEW ULM        CLEAR     48  32  53 N7        29.94R
ST JAMES       CLEAR     39  30  70 NW9       29.95R
FAIRMONT       CLEAR     46  30  53 N12       29.92R
GLENCOE        CLEAR     45  36  72 NW5       29.95R
FARIBAULT      CLEAR     46  32  57 N7        29.92R
OWATONNA       CLEAR     46  30  53 N8        29.91R
WASECA         CLEAR     45  32  61 N12G17    29.93R
ALBERT LEA     CLEAR     48  34  57 N15       29.89R
$$
MNZ078>079-086>088-094>096-041100-
   Southeast Minnesota

CITY           SKY/WX    TMP DP  RH WIND       PRES   REMARKS
ROCHESTER      CLEAR     45  34  65 N18       29.88R
RED WING       CLEAR     41  34  75 CALM      29.90S
STANTON        CLEAR     43  32  65 N7        29.91R
DODGE CENTER   PTCLDY    43  34  70 N8        29.89R
WINONA         CLEAR     48  36  61 N5        29.87R
AUSTIN         CLEAR     45  34  65 N9        29.88R
PRESTON        CLEAR     44  34  70 N13       29.86R
$$
ABBREVIATIONS USED IN REMARKS
   TC - TEMPERATURES IN CELSIUS
  WCI - WIND CHILL INDEX
   HX - HEAT INDEX
  VSB - VISIBILITY
$$



USA.gov is the U.S. government's official web portal to all federal, state and local government web resources and services.